Satellite: FO-70
Catalog number: 37380
Epoch time:      12151.16181620
Element set:    0199
Inclination:      071.9727 deg
RA of node:       352.2718 deg
Eccentricity:    0.0017548
Arg of perigee:   346.0030 deg
Mean anomaly:     014.0635 deg
Mean motion:   14.76816061 rev/day
Decay rate:       4.32e-06 rev/day^2
Epoch rev:           03332
Checksum:              273

Satellite: ALMASAT-1
Catalog number: 38078
Epoch time:      12152.57568018
Element set:     257
Inclination:      069.4967 deg
RA of node:       354.8759 deg
Eccentricity:    0.0761879
Arg of perigee:   269.4632 deg
Mean anomaly:     081.9257 deg
Mean motion:   14.08753391 rev/day
Decay rate:      7.924e-05 rev/day^2
Epoch rev:            1521
Checksum:              357

Satellite: XATCOBEO
Catalog number: 38082
Epoch time:      12152.51347180
Element set:     278
Inclination:      069.4933 deg
RA of node:       353.5713 deg
Eccentricity:    0.0743300
Arg of perigee:   268.7054 deg
Mean anomaly:     082.9285 deg
Mean motion:   14.15081016 rev/day
Decay rate:     2.1288e-04 rev/day^2
Epoch rev:            1523
Checksum:              288

/EX
SB KEPS @ AMSAT  $ORB12152.W
Orbital Elements  12152.WEATHER

HR AMSAT ORBITAL ELEMENTS FOR WEATHER SATELLITES
FROM WA5QGD FORT WORTH,TX May 31, 2012
Send SUBSCRIBE KEPS/UNSUBSCRIBE KEPS to majordomo at amsat.org only
BID: ORB12152.W
TO ALL RADIO AMATEURS BT

Satellite: NOAA-10
Catalog number: 16969
Epoch time:      12151.70790577
Element set:    0939
Inclination:      098.5819 deg
RA of node:       181.0721 deg
Eccentricity:    0.0011346
Arg of perigee:   287.3665 deg
Mean anomaly:     072.6253 deg
Mean motion:   14.27552720 rev/day
Decay rate:       -6.7e-07 rev/day^2
Epoch rev:           33737
Checksum:              325

Satellite: NOAA-11
Catalog number: 19531
Epoch time:      12151.74945092
Element set:    0938
Inclination:      098.7316 deg
RA of node:       237.2739 deg
Eccentricity:    0.0010364
Arg of perigee:   275.2910 deg
Mean anomaly:     084.7081 deg
Mean motion:   14.14967388 rev/day
Decay rate:      -2.45e-06 rev/day^2
Epoch rev:           22204
Checksum:              309

Satellite: NOAA-12
Catalog number: 21263
Epoch time:      12152.83335321
Element set:     426
Inclination:      098.7268 deg
RA of node:       174.5777 deg
Eccentricity:    0.0012949
Arg of perigee:   247.2311 deg
Mean anomaly:     112.7989 deg
Mean motion:   14.25497576 rev/day
Decay rate:       1.08e-06 rev/day^2
Epoch rev:            9420
Checksum:              312

Satellite: MET-3/5
Catalog number: 21655
Epoch time:      12151.75232161
Element set:    0001
Inclination:      082.5545 deg
RA of node:       164.5047 deg
Eccentricity:    0.0013326
Arg of perigee:   012.0571 deg
Mean anomaly:     348.0868 deg
Mean motion:   13.17034671 rev/day
Decay rate:       4.09e-06 rev/day^2
Epoch rev:           99936
Checksum:              281

Satellite: MET-2/21
Catalog number: 22782
Epoch time:      12152.23539284
Element set:     431
Inclination:      082.5488 deg
RA of node:       045.9653 deg
Eccentricity:    0.0021856
Arg of perigee:   196.5279 deg
Mean anomaly:     163.5164 deg
Mean motion:   13.83684450 rev/day
Decay rate:       -5.9e-07 rev/day^2
Epoch rev:           94682
Checksum:              332

Satellite: OKEAN-4
Catalog number: 23317
Epoch time:      12151.97028263
Element set:    0905
Inclination:      082.5414 deg
RA of node:       047.3023 deg
Eccentricity:    0.0023207
Arg of perigee:   051.3588 deg
Mean anomaly:     308.9699 deg
Mean motion:   14.83778312 rev/day
Decay rate:       6.60e-06 rev/day^2
Epoch rev:           95225
Checksum:              301

Satellite: NOAA-14
Catalog number: 23455
Epoch time:      12152.84165637
Element set:     907
Inclination:      098.8253 deg
RA of node:       236.5468 deg
Eccentricity:    0.0009731
Arg of perigee:   012.0328 deg
Mean anomaly:     348.1547 deg
Mean motion:   14.13900774 rev/day
Decay rate:       1.19e-06 rev/day^2
Epoch rev:           89857
Checksum:              322

Satellite: NOAA-15
Catalog number: 25338
Epoch time:      12152.83796575
Element set:     280
Inclination:      098.6898 deg
RA of node:       139.9034 deg
Eccentricity:    0.0010985
Arg of perigee:   151.2453 deg
Mean anomaly:     208.9819 deg
Mean motion:   14.25075110 rev/day
Decay rate:       2.42e-06 rev/day^2
Epoch rev:           73053
Checksum:              318

Satellite: RESURS
Catalog number: 25394
Epoch time:      12151.97949664
Element set:    0124
Inclination:      098.3186 deg
RA of node:       141.1237 deg
Eccentricity:    0.0000908
Arg of perigee:   340.4726 deg
Mean anomaly:     019.6419 deg
Mean motion:   14.24288050 rev/day
Decay rate:       -7.0e-08 rev/day^2
Epoch rev:           72195
Checksum:              298

Satellite: FENGYUN1
Catalog number: 25730
Epoch time:      12152.46267719
Element set:     616
Inclination:      098.8451 deg
RA of node:       111.7354 deg
Eccentricity:    0.0020661
Arg of perigee:   052.6757 deg
Mean anomaly:     307.6289 deg
Mean motion:   14.09554688 rev/day
Decay rate:      1.561e-05 rev/day^2
Epoch rev:           67225
Checksum:              316

Satellite: OKEAN-0
Catalog number: 25860
Epoch time:      12151.95274414
Element set:    0652
Inclination:      097.9336 deg
RA of node:       114.9498 deg
Eccentricity:    0.0000929
Arg of perigee:   036.6594 deg
Mean anomaly:     323.4675 deg
Mean motion:   14.74201673 rev/day
Decay rate:       4.44e-06 rev/day^2
Epoch rev:           69203
Checksum:              313

Satellite: NOAA-16
Catalog number: 26536
Epoch time:      12152.81880403
Element set:     764
Inclination:      099.0953 deg
RA of node:       194.6888 deg
Eccentricity:    0.0011254
Arg of perigee:   127.0261 deg
Mean anomaly:     233.2422 deg
Mean motion:   14.12741907 rev/day
Decay rate:        8.4e-07 rev/day^2
Epoch rev:           60272
Checksum:              294

Satellite: NOAA-17
Catalog number: 27453
Epoch time:      12152.86673554
Element set:     722
Inclination:      098.3376 deg
RA of node:       180.7292 deg
Eccentricity:    0.0011280
Arg of perigee:   199.8970 deg
Mean anomaly:     160.2259 deg
Mean motion:   14.24438479 rev/day
Decay rate:       2.25e-06 rev/day^2
Epoch rev:           51643
Checksum:              324

Satellite: NOAA-18
Catalog number: 28654
Epoch time:      12152.90553951
Element set:     198
Inclination:      099.0455 deg
RA of node:       110.8604 deg
Eccentricity:    0.0013833
Arg of perigee:   197.4644 deg
Mean anomaly:     162.6526 deg
Mean motion:   14.11656240 rev/day
Decay rate:       2.82e-06 rev/day^2
Epoch rev:           36226
Checksum:              304

Satellite: NOAA-19
Catalog number: 33591
Epoch time:      12152.90980568
Element set:     390
Inclination:      098.8638 deg
RA of node:       092.9022 deg
Eccentricity:    0.0015064
Arg of perigee:   068.0751 deg
Mean anomaly:     292.2489 deg
Mean motion:   14.11341429 rev/day
Decay rate:        6.6e-07 rev/day^2
Epoch rev:           17071
Checksum:              313

/EX
SB KEPS @ AMSAT  $ORB12152.M
Orbital Elements  12152.MISC

HR AMSAT ORBITAL ELEMENTS FOR MANNED AND MISCELLANEOUS SATELLITES
FROM WA5QGD FORT WORTH,TX May 31, 2012
Send SUBSCRIBE KEPS/UNSUBSCRIBE KEPS to majordomo at amsat.org only
BID: ORB12152.M
TO ALL RADIO AMATEURS BT

Satellite: HUBBLE
Catalog number: 20580
Epoch time:      12150.12705611
Element set:       7
Inclination:      028.4710 deg
RA of node:       268.2752 deg
Eccentricity:    0.0003169
Arg of perigee:   210.6462 deg
Mean anomaly:     149.3849 deg
Mean motion:   15.02512890 rev/day
Decay rate:      1.696e-05 rev/day^2
Epoch rev:            1186
Checksum:              265

Satellite: ISS
Catalog number: 25544
Epoch time:      12152.87461806
Element set:     668
Inclination:      051.6384 deg
RA of node:       203.9702 deg
Eccentricity:    0.0010241
Arg of perigee:   015.6124 deg
Mean anomaly:     317.7232 deg
Mean motion:   15.56032399 rev/day
Decay rate:      7.984e-05 rev/day^2
Epoch rev:           77546
Checksum:              301

Satellite: CO-58
Catalog number: 28895
Epoch time:      12152.57347966
Element set:     188
Inclination:      097.9179 deg
RA of node:       019.5753 deg
Eccentricity:    0.0017562
Arg of perigee:   199.0130 deg
Mean anomaly:     161.0451 deg
Mean motion:   14.60623631 rev/day
Decay rate:       4.31e-06 rev/day^2
Epoch rev:           35123
Checksum:              318

Satellite: FALCON
Catalog number: 30776
Epoch time:      12151.97009576
Element set:    0364
Inclination:      035.4322 deg
RA of node:       021.9930 deg
Eccentricity:    0.0002188
Arg of perigee:   267.7353 deg
Mean anomaly:     092.3105 deg
Mean motion:   15.07448537 rev/day
Decay rate:      3.318e-05 rev/day^2
Epoch rev:           28765
Checksum:              299

Satellite: MAST
Catalog number: 31126
Epoch time:      12152.57097832
Element set:     470
Inclination:      097.8743 deg
RA of node:       164.6446 deg
Eccentricity:    0.0093994
Arg of perigee:   161.7580 deg
Mean anomaly:     198.7028 deg
Mean motion:   14.54149000 rev/day
Decay rate:       3.73e-06 rev/day^2
Epoch rev:           27185
Checksum:              315

Satellite: CAPE1
Catalog number: 31130
Epoch time:      12151.69763757
Element set:     480
Inclination:      097.8848 deg
RA of node:       160.2139 deg
Eccentricity:    0.0101364
Arg of perigee:   177.5748 deg
Mean anomaly:     182.5927 deg
Mean motion:   14.52922381 rev/day
Decay rate:       1.11e-06 rev/day^2
Epoch rev:           27123
Checksum:              299

